Flag for Germany Weather past 2 weeks in Coesfeld, North Rhine-Westphalia, Germany

Now
66 °F

Mild.


Feels Like: 66 °F
Forecast: 40 / 59 °F
Wind: 12 mph from Northwest

Location: Rheine-Bentlage

Current Time: Apr 21, 2015 at 5:07:32 PM

Latest Report: Apr 21, 2015 at 4:20 PM


Visibility: N/A

Pressure: 30.42 "Hg

Humidity: 35%

Dew point: 37 °F

Location of CoesfeldLocation

Historic Weather in Coesfeld — Graph

°F

Coesfeld temperature yesterday

Maximum temperature yesterday: 66 °F (at 4:20 PM)
Minimum temperature yesterday: 41 °F (at 3:20 AM)
Average temperature yesterday: 53 °F

Past Weeks' High & Low Weather Summary

 TemperatureHumidityPressure
High73 °F (Apr 15, 4:20 PM)100% (Apr 7, 2:20 AM)30.60 "Hg (Apr 7, 2:20 AM)
Low30 °F (Apr 7, 4:20 AM)30% (Apr 21, 2:20 PM)29.92 "Hg (Apr 15, 5:20 PM)
Average50 °F68%30.27 "Hg
* Reported Apr 6 3:20 PM — Apr 21 3:20 PM, Coesfeld, Weather by CustomWeather, © 2015

Note: Actual official high and low records may vary slightly from our data, if they occured in-between our weather recording intervals... More about our weather records

Advertising

Coesfeld weather history for previous 24 hours

 ConditionsComfort  
Time TempWeatherWind HumidityBarometerVisibility
3:20 PM
Tue, Apr 21
68 °FPartly sunny.10 mph30%30.42 "HgN/A
2:20 PM66 °FPartly sunny.10 mph30%30.42 "HgN/A
1:20 PM64 °FPartly sunny.9 mph34%30.45 "HgN/A
12:20 PM63 °FPartly sunny.8 mph34%30.45 "HgN/A
11:20 AM59 °FPartly sunny.3 mph45%30.45 "HgN/A
10:20 AM54 °FPartly sunny.3 mph63%30.45 "HgN/A
9:20 AM50 °FScattered clouds.2 mph71%30.45 "HgN/A
8:20 AM43 °FScattered clouds.2 mph100%30.45 "HgN/A
7:57 AM41 °FPassing clouds.1 mph93%30.45 "Hg4 mi
7:49 AM39 °FFog.1 mph93%30.45 "Hg3 mi
7:20 AM36 °FFog.No wind100%30.42 "Hg1 mi
6:54 AM36 °FFog.No wind100%30.42 "Hg1 mi
6:20 AM36 °FFog.No wind93%30.42 "Hg3 mi
5:53 AM39 °FFog.No wind93%30.42 "Hg4 mi
5:20 AM39 °FFog.No wind93%30.42 "Hg5 mi
4:20 AM39 °FChilly.2 mph93%30.42 "HgN/A
3:20 AM43 °FQuite cool.2 mph93%30.42 "HgN/A
2:20 AM43 °FQuite cool.No wind87%30.42 "HgN/A
1:20 AM45 °FQuite cool.3 mph87%30.42 "HgN/A
12:20 AM48 °FCool.3 mph76%30.39 "HgN/A
11:20 PM
Mon, Apr 20
50 °FCool.3 mph71%30.39 "HgN/A
10:20 PM54 °FCool.6 mph54%30.39 "HgN/A
9:20 PM57 °FRefreshingly cool.5 mph41%30.39 "HgN/A
8:20 PM61 °FRefreshingly cool.8 mph36%30.36 "HgN/A
7:20 PM63 °FMild.8 mph37%30.33 "HgN/A
6:20 PM64 °FMild.10 mph43%30.36 "HgN/A
5:20 PM66 °FMild.9 mph37%30.36 "HgN/A
Weather by CustomWeather, © 2015

See weather overviewHow to use our weather pages